Regional Weather Roundup
Issued by NWS

Home | Current Version | Previous Version | Text Only | Print | Product List | Glossary On
Versions: 1 2 3 4 5 6 7 8 9 10 11 12 13 14 15 16 17 18 19 20 21 22 23 24 25 26 27 28 29 30 31 32 33 34 35 36 37 38 39 40 41 42 43 44 45 46 47 48 49 50
531
ASUS44 KLIX 161714
RWRLA
LOUISIANA WEATHER ROUNDUP
NATIONAL WEATHER SERVICE NEW ORLEANS LA
1100 AM CST MON JAN 16 2017

NOTE: "FAIR" INDICATES FEW OR NO CLOUDS BELOW 12,000 FEET WITH NO
      SIGNIFICANT WEATHER AND/OR OBSTRUCTIONS TO VISIBILITY.
      SKY/WX - SKY CONDITION AND SIGNIFICANT WEATHER.
      TMP - AIR TEMPERATURE.    DP   - DEWPOINT TEMPERATURE.
      RH  - RELATIVE HUMIDITY.  PRES - PRESSURE.
      HX  - HEAT INDEX.         WCI  - WIND CHILL INDEX.

*  THESE STATIONS ARE NOT NWS OR FAA STATIONS AND ARE NOT UNDER
   NWS QUALITY CONTROL.

LAZ040-048-061>063-065-066-069-161800-
SOUTHEAST LOUISIANA

CITY           SKY/WX    TMP DP  RH WIND       PRES   REMARKS
N.O. AUDUBON   NOT AVBL
N.O. INTL ARPT PTSUNNY   75  65  70 S15       30.17F
N.O. LAKEFRONT CLOUDY    75  66  73 SE15      30.18F
N.O. DOWNTOWN*   N/A     75  66  73 S6        30.19F
RESERVE*       CLOUDY    78  68  70 S13G18    30.17F
SLIDELL        CLOUDY    75  65  70 S16       30.18F
BATON ROUGE    PTSUNNY   78  65  63 S12G22    30.14F
BOOTHVILLE     MOSUNNY   73  68  84 SE10G18   30.20R
BELLE CHASSE   CLOUDY    75  67  76 SE12      30.18F
BOGALUSA*      CLOUDY    76  63  63 S14G21    30.21S
GALLIANO*      MOSUNNY   75  64  68 SE7       30.18S
NEW ROADS*     CLOUDY    73  65  74 S12G24    30.14F
GONZALES*      FAIR      75  65  70 SE10G20   30.15F
HAMMOND*       CLOUDY    73  63  68 S14G20    30.17F
HOUMA*         PTSUNNY   75  66  73 SE17      30.16F
PORT FOURCHON* SUNNY     72  66  83 E9        30.17F

$$

LAZ041-044-053-054-161800-
SOUTHWEST LOUISIANA

CITY           SKY/WX    TMP DP  RH WIND       PRES   REMARKS
LAKE CHARLES   PTSUNNY   76  67  73 S14G25    30.08S
LAFAYETTE      CLOUDY    76  67  73 S17G23    30.12F
PATTERSON      CLOUDY    75  67  76 SE15G22   30.14F
SALT POINT     NOT AVBL
NEW IBERIA     PTSUNNY   77  65  66 SE21G26   30.13S
CHENAULT AIRPK PTSUNNY   75  68  78 S20G29    30.08F

$$

LAZ027-028-161800-
CENTRAL LOUISIANA

CITY           SKY/WX    TMP DP  RH WIND       PRES   REMARKS
FORT POLK      CLOUDY    72  68  88 S16       30.07S
ALEXANDRIA INT CLOUDY    68  66  93 S12       30.07F
ALEXANDRIA     PTSUNNY   70  67  90 S9        30.09F

$$

LAZ001-002-161800-
NORTHWEST LOUISIANA

CITY           SKY/WX    TMP DP  RH WIND       PRES   REMARKS
SHREVEPORT     CLOUDY    69  65  86 S15       30.02S
BARKSDALE AFB  CLOUDY    67  67 100 S17       30.03S
DTN SHREVEPORT CLOUDY    67  64  90 S14       30.03R

$$

LAZ014-016-161800-
NORTHEAST LOUISIANA

CITY           SKY/WX    TMP DP  RH WIND       PRES   REMARKS
MONROE         CLOUDY    66  64  93 SE7       30.09F
TALLULAH       CLOUDY    70  62  76 S14       30.13F

$$





USA.gov is the U.S. government's official web portal to all federal, state and local government web resources and services.